This is the latest recevied weather packets stored in our database for station/object DG6YGE-6. If no packets are shown the sender has not sent any weather packets the latest 10 day(s).
| Time | Temp. | Humidity | Pressure | Rain* | Wind** | Luminosity | Snow |
|---|---|---|---|---|---|---|---|
| 1777924150 | 15.56° C | 88% | 1011.4 hPa | 0.51 mm | - | 0 W/m² | - |
| 1777923550 | 16.11° C | 87% | 1011.5 hPa | 0.51 mm | - | 0 W/m² | - |
| 1777922950 | 16.67° C | 85% | 1011.3 hPa | 0.25 mm | - | 0 W/m² | - |
| 1777922350 | 17.22° C | 83% | 1011.3 hPa | 0 mm | - | 0 W/m² | - |
| 1777921750 | 17.22° C | 82% | 1011.2 hPa | 0 mm | - | 0 W/m² | - |
| 1777921150 | 17.22° C | 81% | 1011.1 hPa | 0 mm | - | 0 W/m² | - |
| 1777920550 | 17.22° C | 80% | 1011.3 hPa | 0 mm | - | 0 W/m² | - |
| 1777919950 | 17.22° C | 80% | 1011.2 hPa | 0 mm | - | 1 W/m² | - |
| 1777919350 | 17.78° C | 79% | 1011.2 hPa | 0 mm | - | 7 W/m² | - |
| 1777918750 | 17.78° C | 79% | 1011.1 hPa | 0 mm | - | 11 W/m² | - |
| 1777918150 | 17.78° C | 78% | 1011 hPa | 0 mm | - | 14 W/m² | - |
| 1777917550 | 17.78° C | 78% | 1011 hPa | 0 mm | - | 20 W/m² | - |
| 1777916950 | 18.33° C | 78% | 1010.8 hPa | 0 mm | - | 29 W/m² | - |
| 1777916350 | 18.33° C | 77% | 1010.8 hPa | 0 mm | - | 40 W/m² | - |
| 1777915750 | 18.33° C | 77% | 1010.8 hPa | 0 mm | - | 50 W/m² | - |
| 1777915150 | 18.33° C | 76% | 1010.8 hPa | 0 mm | - | 63 W/m² | - |
| 1777914550 | 18.33° C | 76% | 1010.8 hPa | 0 mm | - | 78 W/m² | - |
| 1777913950 | 18.33° C | 76% | 1010.8 hPa | 0 mm | - | 91 W/m² | - |
| 1777913350 | 18.33° C | 75% | 1010.8 hPa | 0 mm | - | 87 W/m² | - |
| 1777912750 | 18.89° C | 75% | 1010.8 hPa | 0 mm | - | 103 W/m² | - |
| 1777912150 | 18.89° C | 74% | 1010.7 hPa | 0 mm | - | 126 W/m² | - |
| 1777911550 | 18.89° C | 74% | 1010.6 hPa | 0 mm | - | 129 W/m² | - |
| 1777910950 | 18.89° C | 71% | 1010.6 hPa | 0 mm | - | 142 W/m² | - |
| 1777910350 | 18.89° C | 71% | 1010.6 hPa | 0 mm | - | 148 W/m² | - |
| 1777909750 | 18.89° C | 71% | 1010.6 hPa | 0 mm | - | 131 W/m² | - |
* Rain latest hour (hover to see other rain measurements)
** Current wind speed in m/s (hover to see current wind gust speed)